Tracking 17152 objects as of 4-May-2015
HD Live streaming from Space Station

ERS 1

Track ERS 1 now!
10-day predictions
ERS 1 is classified as:


NORAD ID: 21574
Int'l Code: 1991-050A
Perigee: 750.1 km
Apogee: 799.4 km
Inclination: 98.4 °
Period: 100.2 minutes
Semi major axis: 7145 km
RCS: 11.0086 m2 (large)
Launch date: July 17, 1991
Source: European Space Agency (ESA)
Your satellite tracking list
Your tracking list is empty





NASA's NSSDC Master Catalog

Two Line Element Set (TLE):
1 21574U 91050A   15123.51625993  .00000336  00000-0  12611-3 0  9992
2 21574 098.3633 076.5478 0034432 113.1267 002.3135 14.37246592246152

Source of the keplerian elements: AFSPC

N2YO: 3077